Tracking 27111 objects as of 29-Mar-2023
HD Live streaming from Space Station
objects crossing your sky now

DODECAPOLE 2 DEB

Track DODECAPOLE 2 DEB now!
10-day predictions


NORAD ID: 41734
Int'l Code: 2016-051D
Perigee: 866.4 km
Apogee: 922.8 km
Inclination: 90.0 °
Period: 102.7 minutes
Semi major axis: 7265 km
RCS: Unknown
Launch date: August 15, 2016
Source: United States (US)
Launch site: Jiuquan Satellite Launch Center, China (JSC)

Note: This is SATELLITE DEBRIS
Your satellite tracking list
Your tracking list is empty




NASA's NSSDC Master Catalog

Two Line Element Set (TLE):
1 41734U 65065U   23087.55307179  .00007451  00000-0  48626-2 0  9993
2 41734  90.0316  17.9063 0038765 293.8529  65.8591 14.01835293370339
Source of the keplerian elements: AFSPC